Weather Roundup
Issued by NWS Springfield, MO

Home | Current Version | Previous Version | Text Only | Print | Product List | Glossary On
Versions: 1 2 3 4 5 6 7 8 9 10 11 12 13 14 15 16 17 18 19 20 21 22 23 24 25 26 27 28 29 30 31 32 33 34 35 36 37 38 39 40 41 42 43 44 45 46 47 48 49 50
000
NZUS99 KSGF 232159
HRRSGF

HOURLY WEATHER
NATIONAL WEATHER SERVICE SPRINGFIELD MO
500 PM CDT SAT MAY 23 2015

......SGF CWA......

CITY           SKY/WX    TMP DP  RH WIND       PRES   REMARKS
SPRINGFIELD    PTSUNNY   73  60  63 S17       30.11F
JOPLIN         CLOUDY    72  64  76 E12       30.05F
WEST PLAINS    MOSUNNY   72  55  55 SE12      30.19F
ROLLA          CLOUDY    69  54  58 SE8       30.17F
OSAGE BEACH    CLOUDY    70  55  60 SE7       30.15F
BRANSON        PTSUNNY   72  63  73 SE17      30.14F

......SURROUNDING SGF CWA......

CITY           SKY/WX    TMP DP  RH WIND       PRES   REMARKS
CHANUTE        CLOUDY    65  63  93 E10       30.01F
PARSONS        CLOUDY    71  65  81 VRB6      30.01F
COFFEYVILLE    TSTM      69  66  90 SE12      30.01F FOG
EMPORIA        TSTM      60  59  96 N9        30.06S FOG
SILOAM SPRINGS CLOUDY    70  61  73 SE8       30.08F
HARRISON AR    PTSUNNY   72  63  73 SE10      30.14F
NEAR YELLVILLE MOSUNNY   73  63  68 SE9       30.13F

......KANSAS AND MISSOURI......

CITY           SKY/WX    TMP DP  RH WIND       PRES   REMARKS
KANSAS CTY INT CLOUDY    67  60  78 SE16      30.10F
DOWNTOWN KC    CLOUDY    69  59  70 SE12G20   30.09F
COLUMBIA       CLOUDY    72  56  57 S14       30.17F
SEDALIA        CLOUDY    69  57  65 SE15      30.15F
ST JOSEPH      CLOUDY    67  59  75 SE14      30.10F
ST LOUIS       PTSUNNY   78  49  35 SE15      30.19F
SPIRIT OF STL  PTSUNNY   76  51  41 S8        30.17F
KIRKSVILLE     CLOUDY    72  54  53 S14       30.17F
WICHITA        TSTM      59  57  93 NE13      30.03S FOG
TOPEKA         CLOUDY    65  62  90 E10       30.06F
OLATHE         CLOUDY    66  61  84 SE10      30.08F

......TENNESSEE......

CITY           SKY/WX    TMP DP  RH WIND       PRES   REMARKS
MEMPHIS        PTSUNNY   84  55  36 SE8       30.18F
NASHVILLE      PTSUNNY   82  54  37 S9        30.25F

......ARKANSAS.......

CITY           SKY/WX    TMP DP  RH WIND       PRES   REMARKS
FAYETTEVILLE   CLOUDY    71  64  78 SE8G20    30.09F
FT SMITH       CLOUDY    75  64  68 E12G20    30.05F
LITTLE ROCK    PTSUNNY   81  62  52 SE10      30.12F

......OKLAHOMA.......

CITY           SKY/WX    TMP DP  RH WIND       PRES   REMARKS
TULSA          LGT RAIN  70  68  93 SE14      29.98F
PONCA CITY     LGT RAIN  62  61  96 NE12G21   29.94F FOG
MCALESTER      PTSUNNY   75  69  81 SE10G17   29.99F
OKLAHOMA CITY  DRIZZLE   70  68  93 SE16      29.93F FOG

......IOWA............

CITY           SKY/WX    TMP DP  RH WIND       PRES   REMARKS
DES MOINES     CLOUDY    73  53  49 S13       30.13F
QUAD CITIES    PTSUNNY   78  48  34 S8G17     30.17F

......ILLINOIS........

CITY           SKY/WX    TMP DP  RH WIND       PRES   REMARKS
QUINCY         PTSUNNY   76  49  38 SE15      30.17F
CHICAGO        MOSUNNY   80  40  23 SW10G17   30.20F




USA.gov is the U.S. government's official web portal to all federal, state and local government web resources and services.